Regional Weather Roundup
Issued by NWS

Home | Current Version | Previous Version | Text Only | Print | Product List | Glossary Off
Versions: 1 2 3 4 5 6 7 8 9 10 11 12 13 14 15 16 17 18 19 20 21 22 23 24 25 26 27 28 29 30 31 32 33 34 35 36 37 38 39 40 41 42 43 44 45 46 47 48 49 50

000
ASUS44 KMEG 180500
RWRTN
TENNESSEE HOURLY STATE WEATHER ROUNDUP
NATIONAL WEATHER SERVICE MEMPHIS TN
1200 AM CDT SAT APR 18 2015

TNZ002-004-019-021-049-052-054-088>092-180600-
WEST TENNESSEE

CITY           SKY/WX    TMP DP  RH WIND       PRES   REMARKS
MEMPHIS INTL   MOCLDY    65  60  84 E3        30.01S
NWS MEMPHIS      N/A    N/A N/A N/A MISG        N/A
JACKSON        PTCLDY    57  55  93 CALM      30.02F
DYERSBURG      PTCLDY    61  48  63 CALM      30.02F
UNION CITY     CLEAR     57  32  38 CALM      30.01F
PARIS          CLEAR     59  59 100 CALM      30.03F
LEXINGTON      CLOUDY    55  55 100 CALM      30.01F VSB 1/4
SAVANNAH       MOCLDY    61  32  33 CALM      30.03S
$$

TNZ008-025-027-028-033-062-065-066-180600-
NORTH MIDDLE TENNESSEE

CITY           SKY/WX    TMP DP  RH WIND       PRES   REMARKS
NASHVILLE      MOCLDY    61  59  93 CALM      30.05R
CLARKSVILLE    CLEAR     60  59  96 CALM      30.04R FOG
COOKEVILLE       N/A     55  55 100 SW3       30.04R VSB 1
CROSSVILLE     PTCLDY    57  55  93 CALM      30.07R
$$

TNZ061-075-076-078-094-096-097-180600-
SOUTH MIDDLE TENNESSEE

CITY           SKY/WX    TMP DP  RH WIND       PRES   REMARKS
FAYETTEVILLE   CLEAR     57  57 100 CALM      30.02F
TULLAHOMA      PTCLDY    61  59  94 CALM      30.04F
WINCHESTER     CLOUDY    61  59  94 CALM      30.03F
MCMINNVILLE    PTCLDY    61  61 100 CALM      30.05R
COLUMBIA       MOCLDY    57  32  38 CALM      30.02F
SHELBYVILLE      N/A     61  59  94 CALM      30.04F VSB 1/2
$$

TNZ017-018-042-046-047-180600-
NORTHEAST TENNESSEE

CITY           SKY/WX    TMP DP  RH WIND       PRES   REMARKS
TRI CITIES     MOCLDY    59  57  93 CALM      30.05S
ELIZABETHTON   MOCLDY    57  55  94 CALM      30.05F
$$

TNZ012-013-036-069-073-074-180600-
CENTRAL EAST TENNESSEE

CITY           SKY/WX    TMP DP  RH WIND       PRES   REMARKS
KNOXVILLE      CLOUDY    62  60  93 CALM      30.01F
OAK RIDGE      MOCLDY    61  58  90 CALM      30.04S
GATLINBURG     CLEAR     61  59  94 CALM      30.02F
$$

TNZ083-085-099-180600-
SOUTHEAST TENNESSEE

CITY           SKY/WX    TMP DP  RH WIND       PRES   REMARKS
CHATTANOOGA    CLOUDY    61  59  93 NW5       30.05S FOG
$$

SKY/WX REPORTED AS FAIR MEANS FEW OR NO CLOUDS BELOW
12 THOUSAND FEET.



USA.gov is the U.S. government's official web portal to all federal, state and local government web resources and services.